Date String (YYYY-MM-DD hh:mm:ss) UTC,Instrument flags,Ambient pressure (hPa),Sample flow (lpm),Bypass flow (lpm),Sample temperature (°C),Ambient temperature (°C),ASC tube jacket temperature (°C),LED temperature (°C),Box temperature (°C),Sample RH (%),Span deviation,Mass concentration (μg/m³),Mass concentration (μg/m³),Mass concentration (μg/m³)
DateTimeUTC,F1_M11,P_M11,Q1_M11,Q2_M11,T1_M11,T2_M11,T3_M11,T4_M11,T5_M11,U1_M11,ZSPAN_M11,X2_M11,X0_M11,X1_M11
2023-05-15 17:00:00,,0842.6,5.00,0.00,28.6,27.1,00.0,36.9,30.2,26.0,0000.0,0002.96,0005.02,0002.71
2023-05-15 17:01:00,,0842.6,4.99,0.00,28.6,27.1,00.0,36.9,30.2,26.3,0000.0,0002.98,0005.13,0002.74
2023-05-15 17:02:00,,0842.7,5.01,0.00,28.6,27.1,00.0,36.9,30.2,27.1,0000.0,0003.06,0005.31,0002.81
2023-05-15 17:03:00,,0842.7,5.01,0.00,28.6,27.1,00.0,36.9,30.2,27.0,0000.0,0003.12,0005.38,0002.91
2023-05-15 17:04:00,,0842.6,5.00,0.00,28.6,27.1,00.0,36.9,30.2,26.3,0000.0,0003.17,0005.51,0003.01
2023-05-15 17:05:00,,0842.7,4.98,0.00,28.6,27.0,00.0,36.9,30.2,26.3,0000.0,0003.21,0004.42,0003.08
2023-05-15 17:06:00,,0842.6,4.99,0.00,28.6,27.0,00.0,36.9,30.2,26.5,0000.0,0003.24,0004.07,0003.10
2023-05-15 17:07:00,,0842.6,5.01,0.00,28.6,27.0,00.0,36.9,30.2,26.1,0000.0,0003.27,0004.15,0003.12
2023-05-15 17:08:00,,0842.6,5.01,0.00,28.6,27.0,00.0,36.9,30.2,26.4,0000.0,0003.28,0004.14,0003.14
2023-05-15 17:09:00,,0842.6,4.99,0.00,28.6,27.1,00.0,36.9,30.2,26.6,0000.0,0003.28,0004.17,0003.14
2023-05-15 17:10:00,,0842.6,4.99,0.00,28.6,27.1,00.0,36.9,30.2,27.0,0000.0,0003.28,0004.14,0003.15
2023-05-15 17:11:00,,0842.6,5.00,0.00,28.6,27.1,00.0,36.9,30.2,26.1,0000.0,0003.29,0004.09,0003.16
2023-05-15 17:12:00,,0842.6,5.00,0.00,28.6,27.1,00.0,36.9,30.2,26.5,0000.0,0003.32,0004.08,0003.18
2023-05-15 17:13:00,,0842.6,5.00,0.00,28.6,27.0,00.0,36.9,30.2,26.8,0000.0,0003.35,0004.21,0003.20
2023-05-15 17:14:00,,0842.6,4.99,0.00,28.6,27.0,00.0,36.9,30.2,27.2,0000.0,0003.35,0004.28,0003.19
2023-05-15 17:15:00,,0842.6,5.00,0.00,28.6,27.0,00.0,36.9,30.2,26.1,0000.0,0003.32,0004.21,0003.16
2023-05-15 17:16:00,,0842.6,5.01,0.00,28.6,27.0,00.0,36.9,30.2,26.2,0000.0,0003.27,0004.11,0003.13
2023-05-15 17:17:00,,0842.6,5.01,0.00,28.6,27.0,00.0,36.9,30.2,25.7,0000.0,0003.25,0004.66,0003.10
2023-05-15 17:18:00,,0842.6,5.00,0.00,28.6,27.0,00.0,36.9,30.2,25.9,0000.0,0003.21,0005.18,0003.02
2023-05-15 17:19:00,,0842.6,5.00,0.00,28.6,27.0,00.0,36.9,30.2,25.9,0000.0,0003.18,0005.23,0002.97
2023-05-15 17:20:00,,0842.6,4.98,0.00,28.6,27.0,00.0,36.9,30.2,25.3,0000.0,0003.16,0005.19,0002.93
2023-05-15 17:21:00,,0842.6,5.00,0.00,28.6,27.0,00.0,36.9,30.2,25.9,0000.0,0003.15,0005.18,0002.90
2023-05-15 17:22:00,,0842.6,5.00,0.00,28.6,27.0,00.0,36.9,30.2,25.5,0000.0,0003.15,0005.18,0002.89
2023-05-15 17:23:00,,0842.6,5.01,0.00,28.6,27.0,00.0,36.9,30.2,26.7,0000.0,0003.12,0005.22,0002.86
2023-05-15 17:24:00,,0842.6,5.01,0.00,28.6,27.0,00.0,36.9,30.2,27.0,0000.0,0003.08,0005.21,0002.84
2023-05-15 17:25:00,,0842.7,4.99,0.00,28.6,27.0,00.0,36.9,30.2,26.0,0000.0,0003.04,0005.04,0002.83
2023-05-15 17:26:00,,0842.6,5.00,0.00,28.6,26.9,00.0,36.9,30.1,25.1,0000.0,0003.00,0004.98,0002.80
2023-05-15 17:27:00,,0842.6,5.01,0.00,28.5,26.9,00.0,36.9,30.1,26.0,0000.0,0002.99,0004.95,0002.79
2023-05-15 17:28:00,,0842.6,5.00,0.00,28.5,26.9,00.0,36.9,30.1,25.7,0000.0,0002.98,0004.34,0002.80
2023-05-15 17:29:00,,0842.6,4.99,0.00,28.5,26.8,00.0,36.9,30.0,25.5,0000.0,0002.98,0003.71,0002.83
2023-05-15 17:30:00,,0842.6,5.00,0.00,28.5,26.8,00.0,36.9,30.0,26.9,0000.0,0003.00,0003.59,0002.86
2023-05-15 17:31:00,,0842.6,5.00,0.00,28.5,26.8,00.0,36.9,30.1,26.3,0000.0,0003.06,0003.61,0002.93
2023-05-15 17:32:00,,0842.6,5.01,0.00,28.5,26.8,00.0,36.9,30.1,26.2,0000.0,0003.12,0003.72,0002.99
2023-05-15 17:33:00,,0842.6,5.00,0.00,28.5,26.8,00.0,36.9,30.1,25.8,0000.0,0003.14,0004.10,0003.04
2023-05-15 17:34:00,,0842.5,5.00,0.00,28.5,26.8,00.0,36.9,30.1,25.5,0000.0,0003.15,0004.72,0003.07
2023-05-15 17:35:00,,0842.6,5.00,0.00,28.5,26.8,00.0,36.9,30.1,25.3,0000.0,0003.17,0004.44,0003.10
2023-05-15 17:36:00,,0842.5,5.01,0.00,28.5,26.8,00.0,36.9,30.0,25.9,0000.0,0003.19,0004.49,0003.10
2023-05-15 17:37:00,,0842.6,5.00,0.00,28.5,26.8,00.0,36.9,30.0,26.6,0000.0,0003.21,0004.57,0003.11
2023-05-15 17:38:00,,0842.5,5.00,0.00,28.5,26.8,00.0,36.9,30.0,26.7,0000.0,0003.21,0004.61,0003.11
2023-05-15 17:39:00,,0842.5,5.00,0.00,28.5,26.8,00.0,36.9,30.0,25.4,0000.0,0003.20,0004.60,0003.09
2023-05-15 17:40:00,,0842.5,5.00,0.00,28.5,26.8,00.0,36.9,30.0,25.3,0000.0,0003.19,0004.87,0003.07
2023-05-15 17:41:00,,0842.6,5.00,0.00,28.5,26.8,00.0,36.9,30.0,26.5,0000.0,0003.21,0005.26,0003.09
2023-05-15 17:42:00,,0842.5,4.99,0.00,28.5,26.8,00.0,36.9,30.0,25.7,0000.0,0003.24,0005.99,0003.11
2023-05-15 17:43:00,,0842.6,5.00,0.00,28.4,26.7,00.0,36.9,30.0,25.8,0000.0,0003.25,0005.95,0003.14
2023-05-15 17:44:00,,0842.6,5.00,0.00,28.4,26.7,00.0,36.9,29.9,25.4,0000.0,0003.27,0005.63,0003.15
2023-05-15 17:45:00,,0842.5,4.99,0.00,28.4,26.7,00.0,36.9,29.9,26.2,0000.0,0003.31,0005.10,0003.18
2023-05-15 17:46:00,,0842.6,5.00,0.00,28.4,26.7,00.0,36.9,29.9,26.6,0000.0,0003.36,0005.36,0003.22
2023-05-15 17:47:00,,0842.5,5.01,0.00,28.4,26.7,00.0,36.8,30.0,26.0,0000.0,0003.40,0005.42,0003.27
2023-05-15 17:48:00,,0842.5,5.00,0.00,28.4,26.7,00.0,36.8,30.0,26.1,0000.0,0003.46,0005.51,0003.31
2023-05-15 17:49:00,,0842.5,4.98,0.00,28.4,26.8,00.0,36.8,30.0,25.6,0000.0,0003.52,0006.49,0003.36
2023-05-15 17:50:00,,0842.5,5.01,0.00,28.4,26.8,00.0,36.8,30.0,26.0,0000.0,0003.58,0006.70,0003.41
2023-05-15 17:51:00,,0842.5,5.01,0.00,28.4,26.8,00.0,36.8,30.0,25.5,0000.0,0003.60,0006.46,0003.42
2023-05-15 17:52:00,,0842.5,5.00,0.00,28.4,26.8,00.0,36.8,30.0,25.0,0000.0,0003.59,0006.23,0003.41
2023-05-15 17:53:00,,0842.5,5.00,0.00,28.4,26.7,00.0,36.8,29.9,25.8,0000.0,0003.58,0005.55,0003.41
2023-05-15 17:54:00,,0842.5,5.00,0.00,28.4,26.7,00.0,36.8,29.9,26.0,0000.0,0003.63,0005.77,0003.44
2023-05-15 17:55:00,,0842.5,5.00,0.00,28.3,26.7,00.0,36.8,29.9,26.1,0000.0,0003.68,0005.90,0003.48
2023-05-15 17:56:00,,0842.5,5.00,0.00,28.3,26.7,00.0,36.8,29.9,26.0,0000.0,0003.72,0005.91,0003.52
2023-05-15 17:57:00,,0842.5,5.01,0.00,28.3,26.7,00.0,36.8,29.9,25.6,0000.0,0003.74,0005.80,0003.55
2023-05-15 17:58:00,,0842.4,5.00,0.00,28.3,26.7,00.0,36.8,29.9,25.6,0000.0,0003.74,0005.77,0003.56
2023-05-15 17:59:00,,0842.4,5.00,0.00,28.4,26.7,00.0,36.8,30.0,25.6,0000.0,0003.78,0005.86,0003.59
